Fort Myers, FL

1:24 PM EST on November 20, 2017 (GMT -0500)
Page

Weather History for KFMY - October, 2014

Change the Weather History Date:

Monday, October 20, 2014

  Actual Average Record
Temperature  
Mean Temperature 77 °F 77 °F  
Max Temperature 88 °F 86 °F 93 °F (1919)
Min Temperature 66 °F 68 °F 51 °F (1989)
Degree Days  
Heating Degree Days 0 0  
Month to date heating degree days 0 0  
Since 1 July heating degree days 0 0  
Cooling Degree Days 12 12  
Month to date cooling degree days 268 282  
Year to date cooling degree days 3679 3528  
Growing Degree Days 26 (Base 50)    
Moisture  
Dew Point 65 °F    
Average Humidity 69    
Maximum Humidity 93    
Minimum Humidity 43    
Precipitation  
Precipitation 0.00 in 0.08 in 2.84 in (1924)
Month to date precipitation 1.24 2.06  
Year to date precipitation 37.72 51.44  
Sea Level Pressure  
Sea Level Pressure 29.98 in    
Wind  
Wind Speed 4 mph (ESE)    
Max Wind Speed 12 mph    
Max Gust Speed 15 mph    
Visibility 10 miles    
Events      
T = Trace of Precipitation, MM = Missing Value Source: NWS Daily Summary

Daily Weather History Graph

Daily Weather History Graph

Search for Another Location

Airport or City:

Trip Planner

Search our weather history database for the weather conditions in past years. The results will help you decide how hot, cold, wet, or windy it might be!

Date:

Astronomy

Oct. 20, 2014 Rise Set
Actual Time 7:29 AM EDT 6:54 PM EDT
Civil Twilight 7:06 AM EDT 7:17 PM EDT
Nautical Twilight 6:38 AM EDT 7:45 PM EDT
Astronomical Twilight 6:12 AM EDT 8:11 PM EDT
Moon 4:34 AM EDT 5:01 PM EDT
Length of Visible Light 12h 11m
Length of Day
11h 25m
Waning Crescent, 10% of the Moon is Illuminated
Oct 20
Waning Crescent
Oct 23
New
Oct 30
First Quarter
Nov 6
Full
Nov 14
Last Quarter

Hourly Weather History & Observations

Time (EDT) Temp. Heat Index Dew Point Humidity Pressure Visibility Wind Dir Wind Speed Gust Speed Precip Events Conditions
12:53 AM 71.1 °F - 64.9 °F 81% 30.02 in 10.0 mi East 3.5 mph - N/A   Clear
1:53 AM 69.1 °F - 64.9 °F 87% 30.01 in 10.0 mi Calm Calm - N/A   Clear
2:53 AM 68.0 °F - 64.9 °F 90% 30.00 in 10.0 mi East 3.5 mph - N/A   Clear
3:53 AM 68.0 °F - 64.9 °F 90% 29.99 in 10.0 mi East 4.6 mph - N/A   Clear
4:53 AM 66.9 °F - 64.9 °F 93% 29.99 in 10.0 mi Calm Calm - N/A   Clear
5:53 AM 66.9 °F - 64.9 °F 93% 30.00 in 10.0 mi Calm Calm - N/A   Partly Cloudy
6:53 AM 68.0 °F - 64.9 °F 90% 30.01 in 10.0 mi ENE 4.6 mph - N/A   Mostly Cloudy
7:53 AM 68.0 °F - 64.9 °F 90% 30.01 in 10.0 mi NE 4.6 mph - N/A   Clear
8:53 AM 72.0 °F - 66.0 °F 81% 30.03 in 10.0 mi ENE 5.8 mph - N/A   Clear
9:53 AM 77.0 °F - 66.9 °F 71% 30.04 in 10.0 mi ENE 6.9 mph - N/A   Clear
10:53 AM 81.0 °F 83.3 °F 66.9 °F 62% 30.04 in 10.0 mi ESE 5.8 mph - N/A   Clear
11:53 AM 84.0 °F 85.8 °F 64.9 °F 53% 30.03 in 10.0 mi Variable 5.8 mph - N/A   Clear
12:53 PM 84.0 °F 84.9 °F 63.0 °F 49% 30.00 in 10.0 mi Calm Calm - N/A   Clear
1:53 PM 86.0 °F 86.8 °F 63.0 °F 46% 29.96 in 10.0 mi South 5.8 mph - N/A   Clear
2:53 PM 87.1 °F 87.8 °F 63.0 °F 44% 29.94 in 10.0 mi Variable 4.6 mph - N/A   Scattered Clouds
3:53 PM 86.0 °F 87.3 °F 64.0 °F 48% 29.94 in 10.0 mi East 4.6 mph - N/A   Mostly Cloudy
4:53 PM 86.0 °F 87.3 °F 64.0 °F 48% 29.93 in 10.0 mi South 3.5 mph - N/A   Overcast
5:53 PM 86.0 °F 86.8 °F 63.0 °F 46% 29.92 in 10.0 mi Calm Calm - N/A   Mostly Cloudy
6:53 PM 82.9 °F 85.0 °F 66.0 °F 56% 29.93 in 10.0 mi SSE 4.6 mph - N/A   Mostly Cloudy
7:53 PM 80.1 °F 82.3 °F 66.9 °F 64% 29.94 in 10.0 mi Calm Calm - N/A   Mostly Cloudy
8:53 PM 80.1 °F 82.1 °F 66.0 °F 62% 29.96 in 10.0 mi WSW 4.6 mph - N/A   Mostly Cloudy
9:53 PM 79.0 °F - 68.0 °F 69% 29.97 in 10.0 mi South 3.5 mph - N/A   Clear
10:53 PM 78.1 °F - 69.1 °F 74% 29.98 in 10.0 mi SSE 5.8 mph - N/A   Clear
11:53 PM 77.0 °F - 70.0 °F 79% 29.98 in 10.0 mi South 4.6 mph - N/A   Clear